Flag for United Kingdom Weather past 2 weeks in Bournemouth, England, United Kingdom

Now
59 °F

Passing clouds.


Feels Like: 58 °F
Forecast: 44 / 62 °F
Wind: 7 mph from Southwest

Location: Bournemouth Airport

Current Time: Sep 22, 2014 at 7:29:38 PM

Latest Report: Sep 22, 2014 at 6:50 PM


Visibility: N/A

Pressure: 30.24 "Hg

Humidity: 72%

Dew point: 50 °F

Location of BournemouthLocation

Historic Weather in Bournemouth — Graph

°F

Bournemouth temperature yesterday

Maximum temperature yesterday: 66 °F (at 1:50 PM)
Minimum temperature yesterday: 46 °F (at 10:50 PM)
Average temperature yesterday: 58 °F

Past Weeks' High & Low Weather Summary

 TemperatureHumidityPressure
High77 °F (Sep 18, 3:50 PM)100% (Sep 9, 7:20 AM)30.33 "Hg (Sep 9, 7:20 AM)
Low37 °F (Sep 22, 7:20 AM)49% (Sep 22, 4:20 PM)29.74 "Hg (Sep 18, 4:50 AM)
Average61 °F80%30.06 "Hg
* Reported Sep 7 6:20 PM — Sep 22 6:20 PM, Bournemouth, Weather by CustomWeather, © 2014

Note: Actual official high and low records may vary slightly from our data, if they occured in-between our weather recording intervals... More about our weather records

Advertising

Bournemouth weather history for previous 24 hours

 ConditionsComfort  
Time TempWeatherWind HumidityBarometerVisibility
6:20 PM
Sep 22
59 °FPassing clouds.6 mph72%30.24 "HgN/A
5:50 PM61 °FPassing clouds.8 mph68%30.24 "HgN/A
5:20 PM64 °FPassing clouds.5 mph60%30.24 "HgN/A
4:50 PM64 °FPassing clouds.5 mph52%30.24 "HgN/A
4:20 PM66 °FPassing clouds.6 mph49%30.27 "HgN/A
3:50 PM64 °FPassing clouds.3 mph56%30.27 "HgN/A
3:20 PM63 °FPassing clouds.7 mph56%30.27 "HgN/A
2:50 PM64 °FPassing clouds.3 mph52%30.27 "HgN/A
2:20 PM63 °FPassing clouds.5 mph56%30.27 "HgN/A
1:50 PM64 °FPassing clouds.3 mph56%30.30 "HgN/A
1:20 PM63 °FPassing clouds.3 mph56%30.30 "HgN/A
12:50 PM61 °FPassing clouds.5 mph59%30.30 "HgN/A
12:20 PM63 °FPassing clouds.5 mph64%30.30 "HgN/A
11:50 AM61 °FPassing clouds.5 mph59%30.33 "HgN/A
11:20 AM59 °FPassing clouds.5 mph68%30.33 "HgN/A
10:50 AM57 °FClear.2 mph77%30.33 "Hg6 mi
10:20 AM55 °FClear.1 mph88%30.33 "Hg4 mi
9:50 AM52 °FClear.3 mph94%30.33 "Hg4 mi
9:20 AM48 °FFog.3 mph100%30.33 "Hg3 mi
8:50 AM46 °FFog.3 mph93%30.33 "Hg2 mi
8:20 AM41 °FLight fog.3 mph100%30.33 "Hg2 mi
7:50 AM39 °FLight fog.No wind93%30.33 "Hg2 mi
7:20 AM37 °FLight fog.1 mph100%30.33 "Hg2 mi
6:50 AM39 °FLight fog.1 mph100%30.33 "Hg2 mi
6:20 AM39 °FFog.3 mph93%30.33 "Hg2 mi
5:50 AM39 °FFog.2 mph93%30.33 "Hg3 mi
5:20 AM39 °FFog.3 mph93%30.33 "Hg3 mi
4:50 AM39 °FFog.2 mph100%30.33 "Hg2 mi
10:50 PM
Sep 21
46 °FFog.No wind93%30.30 "Hg3 mi
10:20 PM48 °FFog.No wind94%30.30 "Hg3 mi
9:50 PM48 °FFog.No wind94%30.30 "Hg3 mi
9:20 PM50 °FClear.2 mph88%30.30 "Hg6 mi
8:50 PM50 °FClear.5 mph82%30.30 "Hg6 mi
8:20 PM52 °FClear.5 mph82%30.30 "Hg10 mi
7:50 PM55 °FSunny.2 mph72%30.27 "Hg10 mi
7:20 PM57 °FPassing clouds.3 mph67%30.27 "HgN/A
Weather by CustomWeather, © 2014

See weather overviewHow to use our weather pages